Location: Haram ta Haram Freeway
(35.0583°N, 51.4202°E)
Time: 14:30:14
(UTC+04:30)

CAS-4A - Pass Details

Date: 06 July 2020
Orbit: 528 x 545 km, 43.0° (Epoch: 02 August)

Event Time Altitude Azimuth Distance (km) Brightness Sun altitude
Exits shadow 04:47:30 16° 260° (W) 1,447 ? -12.5°
Maximum altitude 04:50:39 58° 337° (NNW) 626 ? -12.0°
Drops below altitude 10° 04:54:39 10° 57° (ENE) 1,777 ? -11.4°
Sets 04:56:55 0° 61° (ENE) 2,666 ? -11.0°
